DateTimeUTC,F1_A11,F1_S11,BsB_S11,BsG_S11,BsR_S11,BbsB_S11,BbsG_S11,BbsR_S11,BaB_A11,BaG_A11,BaR_A11,Tu_S11,T_S11,Uu_S11,U_S11,P_S11,T1_A11
2021-05-20T12:00:00Z,00000200,21000000,,,,,,,0000.04,0000.11,-000.18,16.4,23.3,00.9,00.6,0671.4,30.8
2021-05-20T12:01:00Z,00000200,21000000,,,,,,,0000.05,-000.02,0000.11,16.4,23.3,00.9,00.6,0671.4,30.8
2021-05-20T12:02:00Z,00000200,21000000,,,,,,,0000.02,0000.03,-000.02,16.4,23.3,00.9,00.6,0671.4,30.8
2021-05-20T12:03:00Z,00000200,61000000,,,,,,,0000.65,0000.38,0000.38,16.4,23.3,00.9,00.6,0671.4,30.8
2021-05-20T12:04:00Z,00000200,41000000,0002.49,0001.67,0000.79,0000.29,0000.10,0000.40,0000.35,0000.66,0000.52,16.5,23.1,01.1,00.7,0672.3,30.8
2021-05-20T12:05:00Z,00000200,01000000,0002.30,0001.23,0000.76,0000.70,0000.27,0000.09,0000.83,0000.26,0000.06,16.6,23.0,01.2,00.8,0672.4,30.8
2021-05-20T12:06:00Z,00000200,01000000,0001.84,0001.42,0000.91,0000.28,0000.33,0000.43,0000.28,0000.75,0001.00,16.6,23.0,01.2,00.8,0672.4,30.8
2021-05-20T12:07:00Z,00000200,01000000,0002.45,0001.35,0000.90,0000.33,0000.07,0000.58,0000.94,0000.47,0000.32,16.6,23.0,01.3,00.8,0672.4,30.8
2021-05-20T12:08:00Z,00000200,01000000,0002.70,0001.38,0001.13,-000.05,-000.02,0000.47,0000.78,0000.88,0000.49,16.6,23.0,01.2,00.8,0672.4,30.8
2021-05-20T12:09:00Z,00000200,01000000,0001.83,0001.20,0000.84,0000.89,0000.14,0000.15,0001.01,0000.85,0000.54,16.6,23.0,01.3,00.9,0672.4,30.8
2021-05-20T12:10:00Z,00000200,01000000,0002.48,0001.44,0000.79,0000.92,0000.26,0000.12,0000.52,0000.18,0000.18,16.6,23.0,01.3,00.9,0672.4,30.8
2021-05-20T12:11:00Z,00000200,01000000,0002.18,0001.23,0000.73,-000.11,0000.10,0000.03,0000.25,0000.64,0000.71,16.6,23.0,01.3,00.9,0672.3,30.8
2021-05-20T12:12:00Z,00000200,01000000,0002.44,0001.40,0000.91,0000.49,0000.17,0000.13,0000.58,0000.06,-000.01,16.6,23.0,01.3,00.9,0672.3,30.8
2021-05-20T12:13:00Z,00000200,01000000,0002.62,0001.29,0000.98,0000.41,0000.12,0000.25,0000.42,0000.69,0000.49,16.6,23.0,01.3,00.9,0672.3,30.8
2021-05-20T12:14:00Z,00000200,01000000,0002.61,0001.04,0001.01,0000.46,0000.25,0000.48,0000.98,0000.70,0000.33,16.6,23.0,01.3,00.9,0672.2,30.8
2021-05-20T12:15:00Z,00000200,01000000,0001.71,0001.30,0000.94,0000.47,0000.17,0000.40,0000.83,0000.66,0000.32,16.7,23.0,01.3,00.9,0672.2,30.8
2021-05-20T12:16:00Z,00000200,01000000,0002.33,0001.33,0001.11,-000.06,0000.56,0000.35,0000.09,0000.60,0000.72,16.7,23.0,01.4,00.9,0672.2,30.8
2021-05-20T12:17:00Z,00000200,01000000,0002.95,0001.59,0000.94,0000.50,0000.22,0000.31,0001.15,0000.77,0000.85,16.7,23.0,01.4,00.9,0672.2,30.8
2021-05-20T12:18:00Z,00000200,01000000,0002.85,0001.11,0001.05,0000.23,0000.07,0000.19,0000.98,0000.93,0000.56,16.7,23.0,01.4,00.9,0672.2,30.8
2021-05-20T12:19:00Z,00000200,01000000,0002.16,0001.63,0001.04,0001.03,0000.33,0000.50,0000.50,0000.35,0000.36,16.8,23.1,01.4,00.9,0672.2,30.9
2021-05-20T12:20:00Z,00000200,01000000,0002.96,0001.56,0000.99,0000.35,0000.07,0000.35,0000.62,0000.70,0000.46,16.9,23.1,01.5,01.0,0672.2,30.9
2021-05-20T12:21:00Z,00000200,01000000,0002.39,0001.30,0000.96,0000.38,0000.16,0000.31,0000.43,0000.45,0000.50,16.9,23.2,01.4,00.9,0672.2,30.9
2021-05-20T12:22:00Z,00000200,01000000,0002.25,0001.60,0000.92,0000.04,0000.03,0000.31,0000.76,0000.85,0000.37,17.0,23.2,01.3,00.9,0672.2,30.9
2021-05-20T12:23:00Z,00000200,01000000,0002.42,0001.46,0000.90,0000.79,0000.52,0000.45,0000.67,0000.43,0000.42,17.1,23.3,01.4,01.0,0672.2,30.9
2021-05-20T12:24:00Z,00000200,01000000,0002.87,0001.21,0001.03,0000.60,0000.11,0000.67,0000.61,0000.55,0000.62,17.2,23.4,01.3,00.9,0672.2,30.9
2021-05-20T12:25:00Z,00000200,01000000,0002.38,0001.54,0000.88,-000.15,0000.27,0000.46,0000.54,0000.54,0000.21,17.3,23.4,01.3,00.9,0672.2,31.0
2021-05-20T12:26:00Z,00000200,01000000,0002.45,0001.60,0001.23,0000.84,0000.39,0000.42,0000.80,0000.49,0000.63,17.3,23.5,01.3,00.9,0672.2,31.0
2021-05-20T12:27:00Z,00000200,01000000,0002.97,0001.48,0001.11,0000.28,0000.01,0000.19,0000.85,0000.95,0000.15,17.4,23.5,01.3,00.9,0672.2,31.0
2021-05-20T12:28:00Z,00000200,01000000,0002.68,0001.27,0000.69,-000.06,0000.03,0000.54,0000.39,0000.06,0000.17,17.4,23.5,01.3,00.9,0672.2,31.0
2021-05-20T12:29:00Z,00000200,01000000,0002.24,0001.56,0001.31,0000.16,0000.31,0000.51,0000.40,0000.47,0000.47,17.4,23.5,01.3,00.9,0672.2,30.9
2021-05-20T12:30:00Z,00000200,01000000,0002.25,0001.58,0000.81,0000.08,0000.24,0000.25,0000.63,0000.57,0000.56,17.4,23.6,01.1,00.8,0672.1,31.0
2021-05-20T12:31:00Z,00000200,01000000,0002.90,0001.48,0001.21,0000.28,0000.22,0000.41,0001.17,0001.19,0000.87,17.5,23.6,01.2,00.8,0672.2,30.9
2021-05-20T12:32:00Z,00000200,01000000,0002.71,0001.30,0001.08,0000.77,0000.02,0000.34,0000.50,0000.46,0000.59,17.5,23.6,01.3,00.9,0672.2,30.9
2021-05-20T12:33:00Z,00000200,01000000,0003.01,0001.22,0001.06,0000.25,0000.37,0000.35,0000.92,0000.74,0000.23,17.5,23.6,01.4,00.9,0672.2,30.9
2021-05-20T12:34:00Z,00000200,01000000,0001.67,0001.76,0000.87,0000.16,0000.13,0000.08,0000.13,0000.42,0000.18,17.5,23.6,01.3,00.9,0672.2,30.9
2021-05-20T12:35:00Z,00000200,01000000,0002.40,0001.30,0000.96,0000.61,0000.27,0000.29,0001.16,0000.53,0000.82,17.5,23.6,01.2,00.9,0672.2,31.0
2021-05-20T12:36:00Z,00000200,01000000,0002.24,0001.45,0001.27,0000.44,0000.13,0000.36,0000.31,0001.18,0000.53,17.5,23.6,01.2,00.8,0672.2,30.9
2021-05-20T12:37:00Z,00000200,01000000,0002.20,0001.57,0001.01,0000.56,0000.48,0000.09,0000.53,0000.05,0000.24,17.5,23.6,01.2,00.8,0672.2,30.9
2021-05-20T12:38:00Z,00000200,01000000,0002.61,0001.43,0001.07,0000.58,0000.40,0000.09,0000.75,0000.60,0000.52,17.5,23.7,01.2,00.8,0672.2,30.9
2021-05-20T12:39:00Z,00000200,01000000,0002.32,0001.15,0000.99,0000.52,-000.09,0000.28,0000.47,0000.74,0000.21,17.5,23.7,01.2,00.8,0672.2,30.9
2021-05-20T12:40:00Z,00000200,01000000,0002.74,0001.13,0000.80,0000.21,0000.08,0000.65,0001.01,0000.28,0000.64,17.6,23.7,01.2,00.8,0672.2,30.9
2021-05-20T12:41:00Z,00000200,01000000,0002.45,0001.63,0001.18,0000.63,0000.11,0000.09,0001.00,0000.95,0000.49,17.6,23.7,01.2,00.9,0672.2,30.9
2021-05-20T12:42:00Z,00000200,01000000,0002.51,0001.29,0000.94,0000.63,0000.04,0000.12,0000.32,0000.60,0000.33,17.6,23.7,01.2,00.8,0672.2,30.9
2021-05-20T12:43:00Z,00000200,01000000,0002.25,0001.33,0001.01,0000.69,0000.17,0000.44,0001.07,0000.77,0000.56,17.6,23.7,01.2,00.8,0672.2,30.9
2021-05-20T12:44:00Z,00000200,01000000,0003.00,0001.33,0000.90,0000.33,0000.23,0000.37,0000.66,0000.89,0000.64,17.6,23.7,01.3,00.9,0672.2,30.9
2021-05-20T12:45:00Z,00000200,01000000,0002.75,0001.20,0000.87,0000.43,0000.49,0000.04,0000.73,0000.09,-000.07,17.6,23.7,01.3,00.9,0672.2,30.9
2021-05-20T12:46:00Z,00000200,01000000,0001.86,0001.72,0001.17,0000.39,0000.19,0000.26,0000.53,0000.59,0000.69,17.6,23.7,01.2,00.8,0672.2,30.9
2021-05-20T12:47:00Z,00000200,01000000,0002.56,0001.60,0001.01,0000.39,0000.05,0000.20,0000.66,0000.70,0000.36,17.6,23.7,01.1,00.8,0672.2,30.9
2021-05-20T12:48:00Z,00000200,01000000,0003.23,0001.87,0001.54,0000.22,0000.37,0000.37,0001.24,0001.17,0001.04,17.6,23.7,01.1,00.8,0672.1,30.9
2021-05-20T12:49:00Z,00000200,01000000,0002.91,0001.82,0001.70,0000.93,0000.48,0000.61,0003.56,0003.84,0003.49,17.6,23.8,01.2,00.8,0672.1,30.9
2021-05-20T12:50:00Z,00000200,01000000,0002.96,0001.45,0001.26,0000.46,0000.21,0000.24,0001.03,0000.64,0000.91,17.7,23.8,01.2,00.8,0672.1,30.9
2021-05-20T12:51:00Z,00000200,01000000,0003.19,0001.36,0001.16,0000.53,0000.26,0000.05,0000.82,0000.83,0000.55,17.7,23.8,01.3,00.9,0672.2,30.9
2021-05-20T12:52:00Z,00000200,01000000,0002.50,0002.16,0001.49,0000.82,0000.57,0000.50,0002.23,0002.37,0002.01,17.6,23.8,01.3,00.9,0672.1,30.9
2021-05-20T12:53:00Z,00000200,01000000,0004.78,0004.08,0003.16,0001.16,0001.02,0000.67,0005.33,0004.69,0004.65,17.6,23.7,01.4,01.0,0672.1,30.8
2021-05-20T12:54:00Z,00000200,01000000,0002.86,0001.22,0000.97,0000.46,0000.24,0000.38,0000.54,0000.85,0000.77,17.6,23.7,01.3,00.9,0672.2,30.8
2021-05-20T12:55:00Z,00000200,01000000,0002.20,0001.56,0001.24,0000.28,0000.19,0000.33,0000.93,0000.57,0000.08,17.6,23.7,01.3,00.9,0672.2,30.8
2021-05-20T12:56:00Z,00000200,01000000,0002.02,0001.39,0001.17,0000.48,0000.23,0000.50,0000.28,0000.35,0000.40,17.5,23.7,01.3,00.9,0672.2,30.8
2021-05-20T12:57:00Z,00000200,40000000,,,,,,,0000.03,0000.13,0000.06,17.5,23.7,01.5,01.0,0672.2,30.7
2021-05-20T12:58:00Z,00000200,61000000,,,,,,,-000.19,-000.19,-000.17,17.2,23.7,01.2,00.8,0671.1,30.8
2021-05-20T12:59:00Z,00000200,21000000,,,,,,,0000.00,0000.02,0000.13,17.1,23.8,01.2,00.8,0671.1,30.7
